Location: Antin
(43.3330°N, 0.2804°E)
Time: 04:02:16
(UTC+00:00)

ATLAS 5 CENTAUR R/B - Pass Details

Date: 16 October 2021
Orbit: 497 x 1159 km, 63.4° (Epoch: 25 November)

Event Time Altitude Azimuth Distance (km) Brightness Sun altitude
Rises 20:23:50 0° 261° (W) 2,632 5.5 -34.8°
Reaches altitude 10° 20:26:28 10° 281° (WNW) 1,805 4.7 -35.2°
Enters shadow 20:27:39 15° 297° (WNW) 1,553 4.3 -35.4°
